Location: Izdebno
(52.6670°N, 16.2170°E)
Time: 03:42:02
(UTC+02:00)

Transit 2A - Pass Details

Date: 24 February 2024
Orbit: 596 x 956 km, 66.7° (Epoch: 21 April)

Event Time Altitude Azimuth Distance (km) Brightness Sun altitude
Rises 03:11:35 0° 321° (NW) 2,933 - -33.4°
Reaches altitude 10° 03:13:53 10° 328° (NNW) 2,059 - -33.1°
Maximum altitude 03:18:22 46° 42° (NE) 925 - -32.5°
Exits shadow 03:19:54 35° 89° (E) 1,141 7.2 -32.3°
Drops below altitude 10° 03:23:15 10° 116° (ESE) 2,249 8.8 -31.9°
Sets 03:25:50 0° 122° (ESE) 3,233 9.6 -31.6°
